TimeCST,TemperatureF,Dew PointF,Humidity,Sea Level PressureIn,VisibilityMPH,Wind Direction,Wind SpeedMPH,Gust SpeedMPH,PrecipitationIn,Events,Conditions,WindDirDegrees,DateUTC
12:53 AM,15.1,7.0,70,30.10,10.0,South,10.4,-,N/A,,Overcast,190,2014-02-12 06:53:00
1:53 AM,16.0,8.1,71,30.10,10.0,South,11.5,-,N/A,,Overcast,190,2014-02-12 07:53:00
2:36 AM,17.6,8.6,68,30.04,9.0,SSW,10.4,-,N/A,,Overcast,200,2014-02-12 08:36:00
2:46 AM,15.8,8.6,73,30.04,2.5,SSW,11.5,-,0.00,Snow,Light Snow,200,2014-02-12 08:46:00
2:53 AM,16.0,10.0,77,30.09,1.5,SSW,8.1,-,0.00,Snow,Light Snow,200,2014-02-12 08:53:00
3:31 AM,15.8,12.2,86,30.04,1.0,SSW,6.9,-,0.00,Snow,Light Snow,200,2014-02-12 09:31:00
3:53 AM,16.0,12.9,88,30.09,1.2,SSW,6.9,-,0.01,Snow,Light Snow,200,2014-02-12 09:53:00
4:14 AM,15.8,12.2,86,30.04,2.5,South,5.8,-,0.00,Snow,Light Snow,190,2014-02-12 10:14:00
4:30 AM,15.8,12.2,86,30.04,4.0,South,5.8,-,0.00,Snow,Light Snow,190,2014-02-12 10:30:00
4:53 AM,16.0,12.9,88,30.10,9.0,South,4.6,-,0.00,,Overcast,190,2014-02-12 10:53:00
5:53 AM,16.0,12.9,88,30.11,6.0,South,4.6,-,0.00,,Overcast,190,2014-02-12 11:53:00
6:46 AM,15.8,12.2,86,30.05,2.5,Calm,Calm,-,0.00,Snow,Light Snow,0,2014-02-12 12:46:00
6:53 AM,16.0,12.9,88,30.11,3.0,Calm,Calm,-,0.00,Snow,Light Snow,0,2014-02-12 12:53:00
7:53 AM,17.1,12.9,84,30.12,7.0,Calm,Calm,-,0.00,,Overcast,0,2014-02-12 13:53:00
8:53 AM,17.1,12.9,84,30.14,7.0,Calm,Calm,-,N/A,,Overcast,0,2014-02-12 14:53:00
9:53 AM,19.0,14.0,81,30.14,8.0,Calm,Calm,-,N/A,,Overcast,0,2014-02-12 15:53:00
10:31 AM,19.4,15.8,86,30.08,7.0,Calm,Calm,-,N/A,,Overcast,0,2014-02-12 16:31:00
10:49 AM,19.4,14.0,80,30.07,8.0,Calm,Calm,-,N/A,,Scattered Clouds,0,2014-02-12 16:49:00
10:53 AM,19.9,15.1,81,30.12,8.0,Calm,Calm,-,N/A,,Partly Cloudy,0,2014-02-12 16:53:00
11:30 AM,21.2,15.8,80,30.07,7.0,Calm,Calm,-,N/A,,Mostly Cloudy,0,2014-02-12 17:30:00
11:53 AM,21.9,16.0,78,30.12,7.0,Calm,Calm,-,N/A,,Overcast,0,2014-02-12 17:53:00
12:53 PM,23.0,16.0,74,30.09,7.0,SSE,3.5,-,N/A,,Overcast,150,2014-02-12 18:53:00
1:53 PM,24.1,16.0,71,30.08,7.0,SSW,6.9,-,N/A,,Overcast,200,2014-02-12 19:53:00
2:53 PM,23.0,15.1,72,30.05,7.0,WSW,5.8,-,N/A,,Overcast,240,2014-02-12 20:53:00
3:53 PM,23.0,16.0,74,30.02,7.0,SSW,4.6,-,N/A,,Overcast,210,2014-02-12 21:53:00
4:53 PM,21.0,15.1,78,30.00,6.0,SSW,5.8,-,N/A,,Haze,200,2014-02-12 22:53:00
5:27 PM,21.2,15.8,80,29.96,5.0,SSW,9.2,-,N/A,,Haze,210,2014-02-12 23:27:00
5:53 PM,19.9,15.1,81,29.99,6.0,SW,8.1,-,N/A,,Haze,220,2014-02-12 23:53:00
6:53 PM,19.9,15.1,81,29.99,6.0,SW,6.9,-,N/A,,Haze,220,2014-02-13 00:53:00
7:53 PM,19.9,15.1,81,29.98,6.0,SSW,4.6,-,N/A,,Haze,210,2014-02-13 01:53:00
8:53 PM,19.9,16.0,85,29.95,6.0,South,8.1,-,N/A,,Overcast,190,2014-02-13 02:53:00
9:41 PM,19.4,15.8,86,29.85,5.0,South,13.8,-,N/A,,Overcast,170,2014-02-13 03:41:00
9:53 PM,19.0,16.0,88,29.90,5.0,South,12.7,-,N/A,,Overcast,180,2014-02-13 03:53:00
10:53 PM,19.0,15.1,85,29.87,4.0,South,10.4,-,N/A,,Overcast,190,2014-02-13 04:53:00
11:53 PM,18.0,15.1,88,29.83,4.0,South,11.5,-,N/A,,Overcast,180,2014-02-13 05:53:00